Eastern Lake Superior: Past 24 Hour Conditions

 

Welcome Island

12:00 PM EST 18 December 2018
Disclaimer

This table is a summary of hourly weather conditions for the past 24 hours.
Please note that these observations might not always be representative of weather conditions over their associated marine area.

Date / Time
(EST)
Wind(knots) Conditions Visibility(km) Pressure(kPa) Air tempC) Relative humidity(%) Dew pointC) Wind Chill
18 December 2018
12:00 S 9 gust 16 N/A N/A 101.3 -1 76 -4 -5
11:00 SE 14 N/A N/A 101.5 -1 78 -4 -7
10:00 SSE 14 N/A N/A 101.6 -1 78 -5 -8
9:00 SSE 16 N/A N/A 101.7 -2 80 -5 -9
8:00 SSE 10 gust 17 N/A N/A 101.8 -3 78 -6 -8
7:00 S 9 N/A N/A 101.9 -3 79 -6 -8
6:00 S 8 gust 15 N/A N/A 102.0 -3 81 -6 -8
5:00 SE 8 N/A N/A 102.1 -5 86 -7 -10
4:00 E 6 N/A N/A 102.2 -6 88 -7 -10
3:00 E 3 N/A N/A 102.3 -6 83 -9 -9
2:00 E 6 N/A N/A 102.3 -7 84 -9 -12
1:00 E 13 N/A N/A 102.4 -7 80 -10 -15
0:00 ENE 8 N/A N/A 102.4 -7 78 -10 -14
17 December 2018
23:00 NE 8 N/A N/A 102.5 -7 74 -11 -13
22:00 NE 7 N/A N/A 102.5 -7 71 -12 -13
21:00 NNE 9 N/A N/A 102.5 -7 64 -13 -13
20:00 NNW 8 N/A N/A 102.5 -7 63 -12 -13
19:00 NNW 10 N/A N/A 102.5 -6 62 -12 -13
18:00 NW 9 N/A N/A 102.4 -6 61 -12 -12
17:00 NW 10 N/A N/A 102.4 -5 60 -12 -12
16:00 NW 14 N/A N/A 102.4 -5 59 -12 -12
15:00 NW 16 gust 22 N/A N/A 102.3 -5 60 -12 -13
14:00 WNW 19 N/A N/A 102.2 -6 62 -12 -14
13:00 WNW 19 N/A N/A 102.3 -7 61 -14 -17
12:00 NW 16 gust 21 N/A N/A 102.3 -8 72 -12 -16

Zoom-in to make a selection

Map of Great Lakes - Lake Superior marine weather areas Mid Superior - 45001 East Superior - 45004 West Superior - 45006 Slate Island - 45136 Lake Of the Woods - 45148 Kenora Airport Royal Island Armstrong Airport Caribou Island Marathon Airport Pukaskwa National Park Thunder Bay Airport Welcome Island Little Flatland Island Sault Ste. Marie Airport Wawa Airport
Legend:
buoy Buoy
land station Land Station

Great Lakes - Lake Superior Area

Another Region

What we are doing

Date modified: